IRIDIUM 41 [P]

Last updated on Wed Jun 27 2018 00:20:15 GMT+0000 (Coordinated Universal Time)

1 25040U 97069B 18177.65383816 .00938499 -10604-5 13722-2 0 9992 2 25040 86.3885 225.1426 0368932 347.7669 11.4797 15.40892419 80017

Satellite not in orbit

IRIDIUM 41 [P]